Skip Page Navigation
NASA JPL Caltech
NASA Logo - Jet Propulsion Laboratory + View the NASA Portal
+ Center for Near-Earth Object Studies
JPL Home Earth Solar System Stars & Galaxies Technology
JPL Solar System Dynamics
BODIES ORBITS EPHEMERIDES TOOLS PHYSICAL DATA DISCOVERY FAQ SITE MAP
JPL Small-Body Database Browser
Search: [ help ]  
385783 (2006 BV50)
Classification: Outer Main-belt Asteroid          SPK-ID: 2385783
Ephemeris | Orbit Diagram | Orbital Elements | Mission Design | Physical Parameters | Discovery Circumstances | Close-Approach Data ]

[ show orbit diagram ]
Orbital Elements at Epoch 2459200.5 (2020-Dec-17.0) TDB
Reference: JPL 12 (heliocentric ecliptic J2000)
 Element Value Uncertainty (1-sigma)   Units 
e .2339444863900679 8.4609e-08  
a 3.950834117125815 7.0718e-08 au
q 3.026558258782459 3.6363e-07 au
i 3.257391106697552 1.0191e-05 deg
node 33.65364383357836 0.00020185 deg
peri 11.01082258762802 0.0002043 deg
M 21.75090644825465 2.8004e-05 deg
tp 2459027.196840783958
(2020-Jun-26.69684078)
0.00022156 TDB
period 2868.346542991155
7.85
7.7013e-05
2.109e-07
d
yr
n .1255078473274664 3.3698e-09 deg/d
Q 4.875109975469171 8.7262e-08 au
  Orbit Determination Parameters
   # obs. used (total)      114  
   data-arc span      8845 days (24.22 yr)  
   first obs. used      1996-10-17  
   last obs. used      2021-01-04  
   planetary ephem.      DE441  
   SB-pert. ephem.      SB441-N16  
   condition code      0  
   norm. resid. RMS      .50038  
   source      ORB  
   producer      Otto Matic  
   solution date      2021-Apr-14 11:06:37  

Additional Information
 Earth MOID = 2.035 au 
 Jupiter MOID = .565131 au 
 T_jup = 3.009 
[ show covariance matrix ]

Ephemeris | Orbit Diagram | Orbital Elements | Mission Design | Physical Parameters | Discovery Circumstances | Close-Approach Data ]

Physical Parameter Table
Parameter Symbol Value Units Sigma Reference Notes
absolute magnitude H 15.89   n/a MPCxxxxx  

385783 (2006 BV50)          Discovered 2005-Dec-24 by Spacewatch at Kitt Peak
Reference: Last Updated: 2014-02-19

[ show close-approach data ]
Ephemeris | Orbit Diagram | Orbital Elements | Mission Design | Physical Parameters | Discovery Circumstances | Close-Approach Data ]
ABOUT SSD CREDITS/AWARDS PRIVACY/COPYRIGHT GLOSSARY LINKS
FirstGov 2021-Jun-24 17:02 UT
(server date/time)  
NASA Home Page
Site Manager:   Ryan S. Park
Webmaster  Alan B. Chamberlin